West Point, VA

11:50 AM EDT on June 24, 2018 (GMT -0400)
West Point

Weather History for KFYJ - December, 2011

Change the Weather History Date:

Tuesday, December 6, 2011

  Actual Average (KJGG) Record (KJGG)
Temperature  
Mean Temperature 65 °F -  
Max Temperature 71 °F 57 °F 78 °F (2013)
Min Temperature 59 °F 32 °F 20 °F (1969)
Growing Degree Days 15 (Base 50)    
Moisture  
Dew Point 61 °F    
Average Humidity 90    
Maximum Humidity 100    
Minimum Humidity 73    
Precipitation  
Precipitation 0.00 in - - ()
Sea Level Pressure  
Sea Level Pressure 30.10 in    
Wind  
Wind Speed 6 mph (South)    
Max Wind Speed 14 mph    
Max Gust Speed 20 mph    
Visibility 8 miles    
Events      
Averages and records for this station are not official NWS values.
T = Trace of Precipitation, MM = Missing Value Source: NWS Daily Summary

Daily Weather History Graph

Daily Weather History Graph

Search for Another Location

Airport or City:

Astronomy

Dec. 06, 2011 Rise Set
Actual Time 7:07 AM EST 4:48 PM EST
Civil Twilight 6:38 AM EST 5:17 PM EST
Nautical Twilight 6:05 AM EST 5:50 PM EST
Astronomical Twilight 5:34 AM EST 6:21 PM EST
Moon 2:12 PM EST (12/6) 3:26 AM EST (12/6)
Length of Visible Light 10h 39m
Length of Day
9h 41m
Waxing Gibbous, 86% of the Moon is Illuminated
Dec 6
Waxing Gibbous
Dec 10
Full
Dec 17
Last Quarter
Dec 24
New
Jan 1
First Quarter

Hourly Weather History & Observations

Time (EST) Temp. Dew Point Humidity Pressure Visibility Wind Dir Wind Speed Gust Speed Precip Events Conditions
12:15 AM 59.0 °F 59.0 °F 100% 30.19 in 10.0 mi SSE 4.6 mph - N/A   Overcast
12:35 AM 60.8 °F 59.0 °F 94% 30.19 in 10.0 mi SSE 4.6 mph - N/A   Overcast
12:55 AM 60.8 °F 59.0 °F 94% 30.19 in 10.0 mi SSE 4.6 mph - N/A   Overcast
1:15 AM 60.8 °F 59.0 °F 94% 30.18 in 7.0 mi SSE 6.9 mph - N/A   Overcast
1:35 AM 60.8 °F 59.0 °F 94% 30.19 in 4.0 mi SSE 4.6 mph - N/A   Overcast
1:55 AM 60.8 °F 59.0 °F 94% 30.19 in 4.0 mi South 5.8 mph - N/A   Overcast
2:15 AM 60.8 °F 59.0 °F 94% 30.19 in 5.0 mi SSE 4.6 mph - N/A   Overcast
2:35 AM 59.0 °F 59.0 °F 100% 30.18 in 7.0 mi SSE 8.1 mph - N/A   Overcast
3:15 AM 59.0 °F 59.0 °F 100% 30.17 in 5.0 mi SSE 6.9 mph - N/A   Overcast
3:35 AM 59.0 °F 59.0 °F 100% 30.16 in 10.0 mi SSE 8.1 mph - N/A   Mostly Cloudy
3:55 AM 59.0 °F 59.0 °F 100% 30.16 in 4.0 mi SSE 6.9 mph - N/A   Mostly Cloudy
4:15 AM 59.0 °F 59.0 °F 100% 30.16 in 3.0 mi South 5.8 mph - N/A   Overcast
4:35 AM 59.0 °F 59.0 °F 100% 30.15 in 4.0 mi SSE 4.6 mph - N/A   Overcast
4:55 AM 59.0 °F 59.0 °F 100% 30.15 in 4.0 mi SSE 6.9 mph - N/A   Mostly Cloudy
5:15 AM 59.0 °F 59.0 °F 100% 30.14 in 5.0 mi SSE 6.9 mph - N/A   Scattered Clouds
5:35 AM 59.0 °F 59.0 °F 100% 30.13 in 5.0 mi SSE 8.1 mph - N/A   Clear
5:55 AM 59.0 °F 59.0 °F 100% 30.14 in 3.0 mi SSE 6.9 mph - N/A   Scattered Clouds
6:15 AM 59.0 °F 59.0 °F 100% 30.15 in 2.0 mi South 6.9 mph - N/A   Scattered Clouds
6:35 AM 59.0 °F 59.0 °F 100% 30.15 in 2.5 mi South 5.8 mph - N/A   Clear
6:55 AM 59.0 °F 59.0 °F 100% 30.14 in 3.0 mi South 5.8 mph - N/A   Mostly Cloudy
7:15 AM 60.8 °F 60.8 °F 100% 30.14 in 4.0 mi South 5.8 mph - N/A   Overcast
7:35 AM 60.8 °F 60.8 °F 100% 30.14 in 4.0 mi South 4.6 mph - N/A   Scattered Clouds
7:55 AM 60.8 °F 60.8 °F 100% 30.14 in 10.0 mi South 5.8 mph - N/A   Clear
8:15 AM 60.8 °F 60.8 °F 100% 30.13 in 10.0 mi SSE 4.6 mph - N/A   Clear
8:55 AM 62.6 °F 60.8 °F 94% 30.14 in 10.0 mi SSE 6.9 mph - N/A   Scattered Clouds
9:35 AM 62.6 °F 60.8 °F 94% 30.15 in 10.0 mi South 4.6 mph - N/A   Overcast
9:55 AM 62.6 °F 60.8 °F 94% 30.14 in 10.0 mi SSE 5.8 mph - N/A   Mostly Cloudy
10:15 AM 62.6 °F 60.8 °F 94% 30.14 in 10.0 mi South 5.8 mph - N/A   Scattered Clouds
10:35 AM 64.4 °F 60.8 °F 88% 30.14 in 10.0 mi SSW 4.6 mph - N/A   Mostly Cloudy
10:55 AM 64.4 °F 62.6 °F 94% 30.13 in 10.0 mi South 4.6 mph - N/A   Scattered Clouds
11:15 AM 64.4 °F 62.6 °F 94% 30.12 in 10.0 mi SSW 5.8 mph - N/A   Scattered Clouds
11:35 AM 68.0 °F 62.6 °F 83% 30.11 in 10.0 mi SSW 6.9 mph - N/A   Scattered Clouds
12:15 PM 68.0 °F 62.6 °F 83% 30.08 in 10.0 mi SSW 8.1 mph - N/A   Scattered Clouds
12:35 PM 68.0 °F 62.6 °F 83% 30.08 in 10.0 mi SSW 5.8 mph - N/A   Mostly Cloudy
12:55 PM 68.0 °F 62.6 °F 83% 30.07 in 10.0 mi South 6.9 mph - N/A   Overcast
1:15 PM 69.8 °F 62.6 °F 78% 30.06 in 10.0 mi South 6.9 mph - N/A   Mostly Cloudy
1:35 PM 71.6 °F 62.6 °F 73% 30.05 in 10.0 mi SSW 6.9 mph - N/A   Mostly Cloudy
1:55 PM 69.8 °F 62.6 °F 78% 30.05 in 10.0 mi SW 8.1 mph - N/A   Mostly Cloudy
2:15 PM 71.6 °F 62.6 °F 73% 30.04 in 10.0 mi SSW 13.8 mph 19.6 mph N/A   Overcast
2:35 PM 69.8 °F 60.8 °F 73% 30.04 in 10.0 mi SSW 8.1 mph - N/A   Overcast
2:55 PM 69.8 °F 62.6 °F 78% 30.04 in 10.0 mi SSW 8.1 mph - N/A   Overcast
3:15 PM 69.8 °F 60.8 °F 73% 30.04 in 10.0 mi South 10.4 mph - N/A   Overcast
3:35 PM 69.8 °F 60.8 °F 73% 30.04 in 10.0 mi South 9.2 mph - N/A   Overcast
4:15 PM 68.0 °F 60.8 °F 78% 30.05 in 10.0 mi South 6.9 mph - N/A   Overcast
4:35 PM 68.0 °F 60.8 °F 78% 30.04 in 10.0 mi South 5.8 mph - N/A   Overcast
4:55 PM 68.0 °F 60.8 °F 78% 30.05 in 10.0 mi South 6.9 mph - N/A   Overcast
5:15 PM 68.0 °F 60.8 °F 78% 30.05 in 10.0 mi South 5.8 mph - N/A   Overcast
5:35 PM 66.2 °F 60.8 °F 83% 30.03 in 10.0 mi South 5.8 mph - N/A   Overcast
5:55 PM 66.2 °F 60.8 °F 83% 30.04 in 10.0 mi South 3.5 mph - N/A   Overcast
6:15 PM 64.4 °F 60.8 °F 88% 30.03 in 10.0 mi South 4.6 mph - N/A   Overcast
6:35 PM 64.4 °F 60.8 °F 88% 30.03 in 10.0 mi SSE 6.9 mph - N/A   Overcast
6:55 PM 64.4 °F 60.8 °F 88% 30.03 in 10.0 mi SSE 5.8 mph - N/A   Overcast
7:15 PM 64.4 °F 60.8 °F 88% 30.03 in 10.0 mi SSE 6.9 mph - N/A   Overcast
7:35 PM 64.4 °F 60.8 °F 88% 30.03 in 10.0 mi SSE 6.9 mph - N/A   Overcast
7:55 PM 64.4 °F 60.8 °F 88% 30.03 in 10.0 mi SSE 6.9 mph - N/A   Overcast
8:15 PM 64.4 °F 60.8 °F 88% 30.03 in 10.0 mi South 8.1 mph - N/A   Overcast
8:35 PM 66.2 °F 60.8 °F 83% 30.03 in 10.0 mi South 6.9 mph - N/A   Overcast
8:55 PM 66.2 °F 60.8 °F 83% 30.02 in 10.0 mi SSE 6.9 mph - N/A   Overcast
9:15 PM 66.2 °F 60.8 °F 83% 30.02 in 10.0 mi South 6.9 mph - N/A   Overcast
9:35 PM 66.2 °F 60.8 °F 83% 30.02 in 10.0 mi South 8.1 mph - N/A   Overcast
9:55 PM 68.0 °F 60.8 °F 78% 30.01 in 10.0 mi South 8.1 mph - N/A   Overcast
10:15 PM 66.2 °F 60.8 °F 83% 30.00 in 10.0 mi South 8.1 mph - N/A   Overcast
10:35 PM 66.2 °F 60.8 °F 83% 29.99 in 10.0 mi South 9.2 mph - N/A   Overcast
10:55 PM 66.2 °F 60.8 °F 83% 29.98 in 10.0 mi South 8.1 mph - N/A   Overcast
11:15 PM 66.2 °F 60.8 °F 83% 29.97 in 10.0 mi South 10.4 mph - N/A   Overcast
11:35 PM 66.2 °F 60.8 °F 83% 29.96 in 10.0 mi South 11.5 mph 16.1 mph N/A   Overcast